Tracking 18980 objects as of 22-Feb-2018
HD Live streaming from Space Station
objects crossing your sky now

FENGYUN 1C DEB

Track FENGYUN 1C DEB now!
10-day predictions


NORAD ID: 31566
Int'l Code: 1999-025BZH
Perigee: 822.2 km
Apogee: 866.4 km
Inclination: 98.9 °
Period: 101.7 minutes
Semi major axis: 7215 km
RCS: 0.0092 m2 (small)
Launch date: May 10, 1999
Source: People's Republic of China (PRC)
Launch site: Taiyaun Space Center, China (TSC)

Note: This is SATELLITE DEBRIS
aabbcc
Your satellite tracking list
Your tracking list is empty




NASA's NSSDC Master Catalog

Two Line Element Set (TLE):
1 31566U 99025BZH 18052.87477885  .00000771  00000-0  40805-3 0  9991
2 31566  98.9404  22.2604 0030640 255.1211 159.3027 14.16519838559285
Source of the keplerian elements: AFSPC